カタログに戻る

GORIZONT 20

運用中通信GEO
NORAD 20659·PAYLOAD·🇷🇺 Russia

打ち上げ Jun 20, 1990 から Baikonur Cosmodrome

Loading…

TLE

最新Source: Space-Track

元期: Sep 13, 2026, 16:00 UTC

1 20659U 90054A   26256.66667422 -.00000270  00000-0  00000-0 0  9990
2 20659  12.5969 335.4439 0006522 248.6396  99.8865  1.00305670132575

AllMySatでGORIZONT 20をリアルタイム追跡

Download on the App Store